Regional Weather Roundup
Issued by NWS Northern Indiana

Home | Current Version | Previous Version | Graphics & Text | Print | Product List | Glossary On
Versions: 1 2 3 4 5 6 7 8 9 10 11 12 13 14 15 16 17 18 19 20 21 22 23 24 25 26 27 28 29 30 31 32 33 34 35 36 37 38 39 40 41 42 43 44 45 46 47 48 49 50
000
ASUS43 KIWX 281610
RWRIWX

KIWX WEATHER ROUNDUP
NATIONAL WEATHER SERVICE NORTHERN INDIANA
1200 PM EDT THU APR 28 2016

NOTE: "FAIR" INDICATES FEW OR NO CLOUDS BELOW 12,000 FEET WITH NO
SIGNIFICANT WEATHER AND/OR OBSTRUCTIONS TO VISIBILITY.

* THESE STATIONS ARE NOT UNDER NWS QUALITY CONTROL. THEY ALSO MAY NOT
  REPORT WEATHER SUCH AS PRECIPITATION OR FOG.

INZ001>027-281700-
NORTHERN INDIANA

CITY           SKY/WX    TMP DP  RH WIND       PRES   REMARKS
GARY*          CLOUDY    52  50  93 E6        29.88R
VALPARAISO     CLOUDY    50  46  86 E9        29.88R
MICHIGAN CITY* CLOUDY    48  43  81 SE6       29.89R
LAPORTE*       CLOUDY    51  47  87 SE12      29.89R
KNOX*          CLOUDY    50  41  71 SE13      29.88R
SOUTH BEND     CLOUDY    49  42  77 SE16      29.89S
ELKHART*       CLOUDY    48  45  87 E16       29.91
GOSHEN         CLOUDY    49  43  80 E15       29.90R
MONTICELLO*    CLOUDY    52  47  82 E6        29.85R
LOGANSPORT*    CLOUDY    52  45  76 E9        29.86S
ROCHESTER*     CLOUDY    52  46  82 E10       29.87F
WARSAW*        CLOUDY    46  43  87 E12       29.89S
ANGOLA*        CLOUDY    45  41  87 E16       29.92R
FORT WAYNE     CLOUDY    48  43  82 E14       29.90R
HUNTINGTON*    CLOUDY   N/A N/A N/A E10       29.88R
PERU/GRISSOM   CLOUDY    53  50  89 E10       29.84R
MARION*        CLOUDY    53  49  84 E9        29.85S FOG

$$
INZ028>050-281700-
CENTRAL INDIANA

CITY           SKY/WX    TMP DP  RH WIND       PRES   REMARKS
LAFAYETTE      CLOUDY    54  51  90 NE5       29.84R
KOKOMO*        CLOUDY    54  48  82 E12       29.85R
MUNCIE*        PTSUNNY   59  53  80 E7        29.84R
INDIANAPOLIS   PTSUNNY   66  58  75 CALM      29.81R

$$
MIZ043>046-050>051-056>058-064>065-071>073-077>080-281700-
SOUTHWEST LOWER MICHIGAN

CITY           SKY/WX    TMP DP  RH WIND       PRES   REMARKS
BATTLE CREEK   LGT RAIN  40  37  89 E15       29.94R
BENTON HARBOR  CLOUDY    46  38  73 E17G25    29.90R
COLDWATER*     CLOUDY    45  39  81 E16G25    29.93R
HILLSDALE*     CLOUDY    43  40  88 E13G25    29.92R
HOLLAND        LGT RAIN  40  37  89 E10       29.96R
GRAND RAPIDS   RAIN      38  36  92 E18       29.94F FOG
KALAMAZOO      CLOUDY    43  37  79 E9        29.95R
STURGIS*       CLOUDY    45  39  81 E12G18    29.92R
THREE RIVERS*  CLOUDY    44  40  84 E8        29.94R

$$
OHZ001>008-015>018-024>025-281700-
NORTHWEST OHIO

CITY           SKY/WX    TMP DP  RH WIND       PRES   REMARKS
WAUSEON*         N/A     46  45  93 E20G25    29.92R
DEFIANCE       CLOUDY    49  41  74 E16G22    29.91R
FINDLAY        CLOUDY    47  41  80 NE17      29.88F
TOLEDO EXPRESS CLOUDY    46  39  76 E22       29.92F
TOLEDO METCALF CLOUDY    45  38  76 NE18G26   29.95F
LIMA           CLOUDY    48  45  89 E16       29.87R

$$
AND FOR LAKE MICHIGAN COASTAL AND OPEN LAKE BUOY OBSERVATIONS

STATION/POSITION TEMP    WIND        PRES    VSBY  WAVE
                 AIR SEA DIR/SP/G                  HT/PER
                 (F)     (DEG/KT/KT) (MB)    (MI)  (FT/S)
CALUMET HARBOR    47      70/  7/  9 1010.9R
MICHIGAN CITY     46     100/ 11/ 13   N/A
BURNS HARBOR      48      90/  7/ 15 1011.9R
SAINT JOSEPH      47      20/  1/ 11 1013.2R
SOUTH LAKE BUOY   39 40   90/ 17/ 21 1013.7R         4/ 5
4 MI NW BRIDGMAN  47 46  120/ 14/ 16   N/A           3/ 6

$$
&&




USA.gov is the U.S. government's official web portal to all federal, state and local government web resources and services.